Regional Weather Roundup
Issued by NWS

Home | Current Version | Previous Version | Graphics & Text | Print | Product List | Glossary On
Versions: 1 2 3 4 5 6 7 8 9 10 11 12 13 14 15 16 17 18 19 20 21 22 23 24 25 26 27 28 29 30 31 32 33 34 35 36 37 38 39 40 41 42 43 44 45 46 47 48 49 50
000
ASUS45 KBOI 290110
RWRID

IDAHO REGIONAL WEATHER ROUNDUP
NATIONAL WEATHER SERVICE BOISE ID
700 PM MDT THU MAY 28 2015

NOTE: "FAIR" INDICATES FEW OR NO CLOUDS BELOW 12000 FEET
WITH NO SIGNIFICANT WEATHER AND/OR OBSTRUCTIONS TO VISIBILITY

IDZ012-014-290200-
SOUTHWEST IDAHO


CITY           SKY/WX    TMP DP  RH WIND       PRES   REMARKS
BOISE          SUNNY     78  42  27 NW8       30.02S
CALDWELL       SUNNY     79  41  25 NW6       30.02F
MOUNTAIN HOME  SUNNY     79  34  19 NW9G18    30.01F
$$

IDZ016-017-290200-
SOUTHCENTRAL IDAHO


CITY           SKY/WX    TMP DP  RH WIND       PRES   REMARKS
BURLEY         SUNNY     69  41  36 W7        30.07F
JEROME         SUNNY     72  36  26 SW8       30.08S
TWIN FALLS     SUNNY     73  38  27 VRB7      30.06F
$$

IDZ019>023-290200-
SOUTHEAST IDAHO


CITY           SKY/WX    TMP DP  RH WIND       PRES   REMARKS
IDAHO FALLS    PTSUNNY   61  47  59 N9        30.15R
POCATELLO      MOSUNNY   66  39  37 N5        30.13R
REXBURG        LGT RAIN  58  48  69 NE8       30.16S
$$

IDZ006-010-011-018-031-032-290200-
CENTRAL IDAHO MOUNTAINS


CITY           SKY/WX    TMP DP  RH WIND       PRES   REMARKS
MCCALL         CLOUDY    70  38  31 NW8       30.10F
HAILEY         MOSUNNY   64  43  45 CALM      30.13S
STANLEY          N/A     62  34  35 N8        30.18S
SALMON         CLOUDY    61  45  55 N8        30.15R
CHALLIS        PTSUNNY   63  41  44 N8        30.14S
$$

IDZ002-004-006-007-026-290200-
NORTHERN IDAHO


CITY           SKY/WX    TMP DP  RH WIND       PRES   REMARKS
LEWISTON       MOSUNNY   81  44  27 E9        30.01S
LOWELL           N/A     73  50  44 VRB5      30.05S
COEUR D`ALENE  PTSUNNY   77  50  38 NE22      30.05R
MULLAN PASS    CLOUDY    52  41  66 E6        30.23R
$$



USA.gov is the U.S. government's official web portal to all federal, state and local government web resources and services.